date:2025-07-28T10:42:40+00:00
validtle:1
satid:63491
launchyear:2025
epoch:25208.26079012
epochday:208
tleage:1
tleclassification:U
active:1
name:UNICORN-2Q
meananomly:168.3849
meanmotion:15.3054
rightascension:0.0000
declination:0.0000
semimajoraxis:6852.3418535279
altitudeatperigee:467
altitudeatapogee:482
inclination:97.4264
eccentricity:0.0010655
argumentofperigree:191.7145
nickname:UNICORN-2Q
idesg:25052BM 
cosparid:2025-052BM
altkm:484.46241422531
velkms:7.61909531235
velkmh:27429
onumepoch:2055
onumnow:31470.72
otype:1
otypedesc:Low Earth Orbit (LEO)
status:1
timestamp:2025-07-27T06:15:32+00:00
nowjuliandate:2460884.9463042
nowepochdate:25209.4462962963
TLE:
UNICORN-2Q
1 63491U 25052BM  25208.26079012  .00050093  00000+0  16871-2 0  9992
2 63491  97.4264 102.4437 0010655 191.7145 168.3849 15.30539085 20553